Location: Opava
(49.9500°N, 17.9170°E)
Time: 01:00:46
(UTC+01:00)

ISS - Visible Passes

Search period start: 19 November 2019 00:00
Search period end: 29 November 2019 00:00
Orbit: 412 x 421 km, 51.6° (Epoch: 19 November)

Date Brightness Start Highest point End Pass type
(mag) Time Alt. Az. Time Alt. Az. Time Alt. Az.
22 Nov -1.2 18:29:07 10° SSW 18:29:57 15° SSW 18:29:57 15° SSW visible
23 Nov -2.0 17:41:18 10° S 17:43:43 20° SE 17:43:43 20° SE visible
24 Nov -1.5 16:53:56 10° SSE 16:55:37 13° SE 16:57:18 10° ESE visible
24 Nov -2.0 18:28:30 10° SW 18:30:19 29° SW 18:30:19 29° SW visible
25 Nov -3.1 17:40:17 10° SW 17:43:27 40° SSE 17:43:56 37° SE visible
25 Nov -0.2 19:16:44 10° W 19:16:51 11° W 19:16:51 11° W visible
26 Nov -2.4 16:52:13 10° SSW 16:55:07 27° SE 16:57:30 13° E visible
26 Nov -2.2 18:28:15 10° WSW 18:30:24 36° WSW 18:30:24 36° WSW visible
27 Nov -3.8 17:39:50 10° WSW 17:43:11 74° SSE 17:43:54 51° E visible
27 Nov -0.2 19:16:41 10° W 19:16:48 11° W 19:16:48 11° W visible
28 Nov -3.4 16:51:29 10° SW 16:54:46 54° SSE 16:57:22 15° E visible
28 Nov -2.1 18:28:09 10° W 18:30:16 34° WNW 18:30:16 34° WNW visible
